XW-3 (CAS-9)

Last updated on Mon Jun 22 2026 00:03:19 GMT+0000 (Coordinated Universal Time)

1 50466U 21131B 26172.49743442 .00000355 00000+0 12318-3 0 9994 2 50466 98.4980 264.8640 0005385 87.0874 273.0931 14.41360770235734
UTC large
Height (km)
Speed (km/s)
/
Latitude / Longitude
Inclination (degrees)
Orbital Period (minutes)
Azimuth
Elevation
Range (km)
Doppler Factor

Next 0 passes for location: London (51.5072 / 0.1276)

No passes found over London.
XW-3 (CAS-9)